Theta_e
314 313 315 314 315 316 316 317 317 318 318 317 318 316 315 314 315 317 317 316 316 315 315 316 316 317 317 317 319 320 322 322 322 325 329 332 333 332 335 335 334 334 334 335 338 341 337 334 338 337 335 334 332 331 333 336 336 335 334 334 336 337 337 337 336 335 335 335 335 335 335 334 334 333 332 333 332 331 332 332 332 331 330 331 331 330
314 313 314 315 316 317 318 318 318 319 319 319 317 315 314 314 314 317 317 317 316 315 315 316 315 316 318 317 319 320 321 322 322 323 325 328 331 331 332 334 334 336 338 338 340 341 340 338 338 338 337 337 337 334 334 336 336 335 334 334 336 337 336 336 336 335 334 334 335 335 335 334 333 333 333 333 333 331 332 331 331 331 331 331 330 328
314 313 314 316 316 317 318 319 319 320 320 318 316 315 313 314 315 316 318 317 317 316 315 316 315 315 317 318 318 319 321 321 321 322 323 325 328 329 329 329 332 335 338 339 339 340 341 339 338 337 337 337 337 336 334 336 337 337 336 335 337 337 336 337 336 335 335 334 334 335 335 333 332 334 333 333 333 332 332 332 331 331 330 329 328 328
315 314 315 316 316 317 319 320 320 320 319 318 317 314 313 315 315 314 316 318 317 316 316 316 316 316 318 318 318 319 320 321 320 320 322 323 326 329 327 327 329 331 335 339 338 339 340 340 337 337 337 334 334 336 337 337 338 337 337 336 337 337 336 337 336 335 335 334 334 335 334 332 332 334 333 333 333 333 332 332 331 330 329 328 329 330
315 316 316 316 316 318 319 320 320 318 317 317 317 316 314 315 315 314 316 318 317 317 317 316 314 315 317 318 318 318 319 320 321 320 320 321 322 326 328 328 328 328 333 337 337 337 338 339 339 338 337 334 335 338 338 337 336 336 338 337 337 336 336 337 336 335 335 334 334 334 333 333 333 333 332 332 333 333 331 330 330 329 329 331 332 333
315 317 318 316 317 317 318 319 318 317 316 316 318 317 316 316 316 317 317 316 315 314 316 316 312 312 315 317 317 318 319 319 320 320 319 321 320 323 328 330 329 328 331 333 335 337 337 339 339 338 337 336 337 339 338 337 335 335 337 338 337 337 337 336 336 336 335 335 334 333 333 333 333 332 331 332 332 332 331 330 332 332 331 333 333 333
315 317 318 316 317 317 316 316 316 318 315 314 317 318 317 317 317 317 316 314 313 312 317 317 313 312 314 316 317 318 318 318 320 320 320 320 320 321 324 330 332 330 330 329 332 337 338 339 340 340 339 337 337 339 337 336 335 333 335 337 336 337 337 335 336 336 335 334 334 333 333 332 332 332 331 331 331 332 333 332 333 333 331 331 331 331
316 317 318 317 316 316 315 315 316 317 315 314 317 317 317 317 316 316 315 313 313 314 316 317 315 313 312 315 318 319 318 319 320 320 321 319 319 320 321 328 332 331 331 331 332 338 340 340 341 340 340 338 338 338 336 336 335 333 333 335 335 336 336 335 335 335 334 334 334 333 332 332 331 331 331 331 330 332 333 332 332 331 330 331 331 330
317 317 318 317 316 315 314 315 316 316 315 315 317 317 316 316 315 315 314 314 315 314 313 314 316 314 311 315 317 319 318 318 319 321 323 324 322 322 320 325 332 331 331 332 334 338 341 340 340 340 340 340 339 338 336 336 336 335 335 334 335 336 336 334 333 333 333 333 333 332 331 331 331 330 329 329 329 331 332 330 330 331 331 331 330 329
318 317 318 317 315 315 315 316 316 316 316 316 317 316 315 316 315 315 315 314 314 313 311 313 315 314 312 314 316 317 317 318 321 325 327 328 327 327 325 325 331 331 331 333 337 340 340 339 339 339 340 340 338 338 338 337 336 336 336 336 336 336 334 330 330 331 331 332 333 332 331 330 330 329 327 328 330 331 330 330 331 332 331 330 328 327
318 318 318 317 316 316 316 316 316 316 316 316 316 315 315 315 315 316 315 314 313 312 312 313 315 314 312 315 320 323 323 324 328 328 329 330 329 329 329 327 330 331 332 336 339 340 339 338 339 339 340 340 338 337 338 337 337 337 337 336 336 336 333 327 328 331 332 332 333 332 330 328 328 328 329 329 331 331 330 331 331 330 329 329 328 326
316 317 317 317 317 317 316 316 316 317 316 316 316 314 313 313 314 314 314 314 313 312 313 314 314 313 312 316 325 328 328 329 330 329 329 330 330 329 329 329 332 333 335 338 339 338 338 338 338 339 339 339 338 337 337 337 337 337 336 336 336 336 334 331 331 333 333 333 332 329 327 326 325 328 330 330 332 332 332 332 330 329 330 329 327 325
315 316 316 316 316 316 316 315 316 317 316 316 315 314 312 312 314 314 313 314 313 313 314 314 315 314 314 320 327 328 328 329 329 329 328 329 330 330 331 332 335 336 337 338 338 337 338 338 338 338 339 339 338 337 337 337 336 336 335 335 335 335 335 333 332 332 332 332 330 325 324 325 324 328 331 331 332 332 331 331 328 329 330 328 328 327
315 316 316 315 316 316 317 315 315 316 316 315 314 313 312 312 314 315 314 314 314 314 314 315 316 314 315 323 329 329 329 329 330 330 329 329 330 331 332 334 336 336 336 336 336 336 337 337 337 338 338 339 339 338 338 337 336 336 335 335 335 335 335 335 333 332 331 331 328 324 325 324 325 330 332 332 332 330 330 330 328 329 329 328 329 328
314 315 316 316 316 316 316 315 316 316 315 315 314 314 312 312 314 315 314 314 314 315 314 316 317 313 316 324 328 329 329 330 330 330 330 331 331 332 333 334 334 335 335 335 334 334 335 336 337 337 338 339 339 338 338 337 337 335 335 335 335 335 335 334 334 331 329 331 328 325 326 324 326 331 331 331 330 329 329 329 329 328 328 328 328 328
314 315 316 316 316 316 315 316 317 316 315 315 315 314 313 313 314 313 314 316 315 314 315 316 316 317 322 326 327 328 329 330 331 331 331 332 332 332 333 333 333 333 333 333 333 333 336 336 336 337 338 339 339 338 337 337 336 335 334 335 335 335 334 333 334 332 330 330 329 326 326 325 326 330 330 330 329 329 330 329 328 329 329 328 328 328
314 315 316 316 317 316 316 316 316 315 315 315 315 313 314 316 316 314 314 316 316 315 315 314 316 320 324 325 325 326 328 329 330 331 331 332 332 331 332 332 332 332 332 333 333 334 335 336 336 336 337 337 337 338 337 336 335 335 334 335 335 334 334 332 333 334 331 330 328 326 326 326 327 331 331 330 330 329 328 328 328 327 325 323 325 325
316 315 315 316 316 316 317 317 316 316 316 315 315 314 316 316 316 315 315 315 316 315 314 313 314 317 319 321 325 327 328 329 329 330 331 331 332 332 333 332 332 333 333 333 334 334 335 335 335 336 336 336 336 337 336 335 335 335 334 335 335 334 334 333 332 333 332 330 330 329 329 329 330 331 329 329 328 325 323 327 328 325 322 320 322 322
316 314 315 316 316 316 317 316 315 316 316 315 316 317 316 314 314 315 315 316 317 316 315 314 313 316 320 323 325 326 328 329 329 330 331 331 331 332 332 332 333 333 333 334 335 334 335 335 335 335 334 335 336 336 336 335 335 335 334 334 335 334 334 333 331 331 332 331 331 331 330 330 330 329 329 328 325 321 322 326 326 325 325 322 321 318
318 315 315 316 316 316 315 315 314 315 315 315 317 317 316 315 316 316 315 315 316 316 316 315 314 320 325 325 325 326 328 329 329 329 329 330 331 332 332 331 332 333 333 334 334 334 334 333 333 334 334 334 335 334 335 335 335 335 334 333 334 334 334 333 331 331 332 330 329 330 330 329 329 329 328 326 323 322 325 327 325 326 324 319 317 317
317 317 315 315 316 315 314 314 314 314 315 314 314 315 315 316 317 317 317 316 315 315 316 314 316 324 327 325 326 327 327 328 328 328 329 330 331 331 331 330 330 330 330 331 330 330 332 333 333 333 333 334 334 334 334 333 334 335 335 333 333 333 334 333 331 331 332 329 327 330 330 329 328 329 328 326 324 325 327 326 326 326 323 318 319 320
317 317 316 315 315 314 313 315 314 315 316 315 314 314 315 316 316 316 317 317 315 315 316 315 318 325 327 324 326 326 326 328 329 329 329 330 329 329 328 327 326 326 327 327 326 326 329 332 333 333 333 333 332 332 332 332 333 334 334 333 333 333 332 332 331 331 331 330 328 330 331 329 328 328 328 327 326 326 327 326 326 325 323 322 323 322
317 317 316 315 315 315 316 316 315 316 316 316 316 315 315 316 315 315 316 318 317 317 318 314 317 325 326 324 326 327 326 328 328 328 328 327 326 327 325 324 324 324 324 324 324 326 327 328 330 331 332 332 331 330 330 331 332 333 333 333 332 332 331 330 330 331 330 330 329 329 330 330 329 328 327 326 326 326 326 326 325 325 322 323 324 323
318 318 316 316 316 317 317 316 317 318 317 317 317 317 318 316 316 317 318 320 317 316 319 316 317 325 326 324 326 326 326 326 326 326 327 325 325 325 324 323 323 323 323 322 323 325 324 323 326 328 330 331 331 330 330 331 331 331 331 331 330 330 330 327 327 329 330 330 330 329 328 329 330 328 326 325 325 325 325 326 325 324 321 322 323 323
318 318 317 316 316 317 318 317 317 316 316 317 317 317 318 317 319 320 320 320 318 316 318 317 318 325 325 324 325 325 324 324 323 323 324 324 324 324 323 321 321 321 321 321 323 323 322 323 326 327 328 329 329 329 330 330 330 330 330 330 330 329 328 327 325 327 329 329 329 329 327 328 329 328 326 325 325 325 325 326 325 323 322 322 322 322
318 318 317 317 316 318 319 318 318 318 317 316 317 319 319 318 319 320 318 318 318 317 316 315 319 326 326 324 324 323 322 322 321 321 321 322 323 323 322 321 320 320 320 322 323 323 324 325 326 327 327 328 328 328 329 329 329 329 328 329 329 328 328 328 326 327 329 329 328 328 326 325 325 325 326 326 325 325 325 326 325 323 323 323 322 322
318 319 319 319 319 319 319 319 319 319 319 317 317 319 320 319 319 320 318 317 318 318 318 318 322 326 326 325 323 323 323 321 320 321 321 321 321 321 320 320 320 320 320 321 322 323 324 325 325 325 325 326 326 326 327 327 327 327 327 327 328 328 328 329 328 329 329 328 326 326 325 324 323 324 325 325 325 325 325 325 325 323 323 323 322 322
320 319 320 322 322 320 319 319 319 319 320 321 320 320 320 318 318 321 320 318 320 320 319 323 326 326 327 325 323 323 322 321 320 320 319 319 319 318 318 318 318 318 319 319 320 320 322 323 322 322 322 323 324 324 325 325 326 326 325 325 327 327 328 329 329 329 328 327 325 324 323 323 324 325 325 325 325 325 325 325 324 324 323 322 322 321
320 320 320 322 323 321 319 319 319 319 320 322 323 323 322 320 320 322 322 322 323 321 320 324 326 326 326 324 321 321 320 319 319 318 317 317 316 316 316 316 316 316 317 317 317 318 319 319 319 320 320 320 321 322 322 323 324 324 324 325 326 326 327 328 329 329 329 327 326 325 324 323 324 327 326 325 324 324 324 324 324 323 322 322 322 321
319 320 321 321 322 321 320 320 319 319 320 322 322 323 323 323 323 325 325 325 325 323 323 325 325 324 323 320 318 318 317 317 317 316 316 315 315 316 315 315 315 315 315 315 314 315 316 315 316 316 317 319 320 321 321 322 323 323 323 324 324 325 326 326 327 328 328 327 326 326 326 325 325 327 326 325 324 324 323 323 324 323 322 321 321 320
318 319 320 320 321 321 320 320 319 319 321 323 322 321 322 324 324 324 325 325 325 325 325 325 324 320 317 316 316 315 315 315 315 315 315 314 314 314 314 313 313 313 313 313 313 315 316 315 315 315 316 318 320 321 322 321 322 322 322 323 323 324 325 325 325 326 326 327 326 326 326 326 326 326 325 325 324 324 323 322 322 322 321 321 321 320
317 317 318 319 320 321 320 319 319 319 321 323 322 320 320 323 323 322 322 322 324 325 325 325 324 319 315 315 315 314 314 314 314 313 312 311 311 311 312 312 312 311 312 311 312 314 316 316 316 315 315 317 318 320 321 321 321 321 321 322 322 323 324 324 324 324 325 325 325 326 326 326 325 325 325 324 323 323 323 322 321 319 319 319 317 316
317 317 317 318 319 320 320 320 319 319 320 322 320 317 317 320 321 321 320 320 322 323 323 324 322 317 314 314 313 313 313 312 311 311 310 309 309 309 309 310 310 310 311 310 310 312 314 315 316 316 316 317 318 318 319 320 320 321 321 321 322 322 323 323 323 323 323 323 324 325 325 325 325 325 324 324 323 322 323 322 321 319 317 317 314 311
318 317 318 318 318 319 320 320 319 319 320 318 314 313 315 317 319 320 319 319 319 320 319 319 317 314 313 313 312 310 310 309 308 308 308 308 307 307 307 307 307 308 308 308 309 310 311 313 316 317 317 318 318 318 318 319 320 320 320 320 321 321 322 322 322 323 322 322 322 323 323 323 324 324 323 323 322 322 322 322 321 319 317 317 315 312
317 317 318 318 317 318 319 320 321 321 318 314 312 312 313 314 316 317 316 316 317 318 317 316 314 313 312 311 309 308 308 307 306 306 306 306 306 305 305 305 305 305 306 306 308 309 310 313 315 316 316 317 318 317 317 317 317 318 319 320 320 320 321 321 321 321 321 321 321 322 322 322 322 322 322 322 321 321 321 321 321 318 315 314 313 313
316 317 317 317 317 317 318 320 321 318 313 312 312 311 312 313 314 315 315 314 314 315 315 313 311 311 310 309 307 307 306 306 305 305 305 305 305 305 305 304 304 304 304 305 307 309 311 313 314 315 315 316 317 316 316 316 315 316 318 319 319 319 319 320 320 320 320 320 320 320 321 321 322 322 322 322 321 320 321 321 320 317 313 310 310 311
316 316 316 316 316 317 318 318 316 314 313 313 312 310 310 311 311 313 315 314 312 312 313 311 309 309 309 308 307 307 307 306 305 304 304 304 303 303 304 303 303 303 304 305 306 308 310 311 312 313 314 315 315 316 316 316 315 315 315 316 317 317 318 319 319 319 319 319 319 319 320 320 320 320 321 321 321 320 321 320 320 318 315 312 311 311
316 316 316 316 315 315 317 317 315 316 316 314 312 310 309 309 309 310 313 314 312 312 312 310 309 309 308 308 308 308 309 308 306 304 304 304 303 303 303 302 302 303 304 305 306 307 307 309 310 312 312 313 313 314 314 315 315 316 315 314 314 315 316 317 317 317 317 318 318 318 319 319 318 318 318 319 319 320 320 319 319 319 318 316 314 313
316 316 315 315 314 314 316 317 316 317 315 311 310 310 310 310 309 310 314 315 312 310 311 310 309 308 308 309 308 309 311 309 305 303 303 303 303 303 303 303 302 303 304 304 305 306 306 306 307 308 309 310 309 309 311 312 314 315 315 314 314 314 314 315 315 315 315 316 317 317 318 318 318 317 317 317 318 319 319 318 319 318 318 318 317 316
316 316 315 314 315 314 315 315 314 314 312 309 308 310 310 310 310 312 317 316 311 309 310 309 309 308 308 308 307 307 308 307 304 302 302 302 302 302 302 302 302 302 303 303 304 305 305 306 306 307 307 307 306 306 307 309 311 312 312 311 312 313 312 312 312 313 313 313 315 315 316 316 316 317 317 317 318 319 318 318 319 318 317 317 318 318
314 314 314 314 314 314 314 314 312 310 308 307 308 309 309 310 312 315 316 312 309 309 309 308 308 307 307 306 304 302 303 303 302 301 300 300 300 300 300 301 301 301 302 302 302 302 303 305 306 306 306 306 305 304 304 306 307 307 307 308 308 308 307 307 308 310 310 311 312 313 313 314 314 314 314 314 315 316 317 317 317 317 317 317 317 317
312 312 313 313 312 312 313 313 313 310 307 306 308 309 308 311 314 313 311 310 309 308 307 307 306 305 303 303 301 300 300 300 300 299 299 299 299 299 299 299 300 300 300 300 300 300 300 301 303 303 303 303 303 302 302 304 305 305 305 305 305 304 304 304 305 306 307 307 308 308 309 309 310 310 311 310 311 312 313 313 313 313 314 314 314 314
309 310 312 311 310 311 312 312 313 311 307 305 307 308 307 309 310 309 308 309 309 307 307 307 305 303 302 300 299 299 299 299 298 298 298 298 298 298 298 298 299 299 299 299 298 297 297 298 299 299 300 300 301 300 300 301 302 303 304 304 303 302 303 304 305 306 306 306 306 306 307 306 307 307 307 308 308 309 309 310 310 310 311 311 311 311
308 309 311 308 308 311 312 310 309 307 305 304 306 306 306 306 307 307 309 309 308 307 307 305 303 302 301 300 299 299 298 298 297 297 297 297 297 297 298 298 298 298 299 299 299 298 297 297 296 297 297 297 297 297 298 299 299 299 300 301 301 300 300 300 301 303 304 305 306 307 307 307 307 307 306 306 305 305 306 307 308 308 309 309 310 310
307 307 308 306 305 307 307 305 304 304 304 304 304 304 304 305 306 307 308 308 308 308 307 304 303 302 300 299 299 299 298 298 297 297 297 297 297 297 297 297 297 296 297 298 298 298 299 299 297 297 297 296 296 296 296 296 297 297 298 298 298 298 298 297 297 298 299 300 301 303 304 304 304 305 305 304 303 302 302 303 304 305 306 306 307 307
307 307 307 306 305 305 304 304 304 304 303 303 302 302 303 303 304 305 306 306 307 307 305 304 302 301 300 300 299 299 299 299 298 298 297 297 297 297 297 297 297 297 297 297 298 298 300 300 299 298 298 297 298 298 297 296 296 296 296 296 296 296 296 296 296 296 297 298 298 299 299 300 300 300 299 299 300 299 299 300 300 301 302 303 304 304
308 308 307 306 306 306 305 304 303 303 303 302 302 301 301 302 302 303 303 304 305 304 303 302 301 301 300 300 300 300 300 299 299 299 298 298 298 298 298 298 298 298 297 298 298 299 300 300 300 300 299 298 298 299 299 298 297 296 296 296 296 296 296 296 296 296 297 298 298 297 297 298 298 298 297 298 299 299 298 298 297 297 298 299 301 303
307 307 306 305 304 304 304 303 303 303 302 302 301 301 301 301 301 301 301 302 303 302 302 301 301 300 300 300 299 300 299 299 299 299 298 298 298 298 298 298 297 297 297 298 299 299 300 300 299 299 299 298 298 298 298 297 297 296 296 296 296 296 295 296 296 297 297 297 297 298 298 298 298 297 296 297 298 298 297 297 296 296 296 297 298 299
307 306 305 304 304 304 304 304 304 303 302 302 301 301 300 300 300 300 300 300 301 301 301 301 301 301 300 300 300 300 300 300 300 300 300 299 299 298 298 298 298 297 297 298 299 299 299 299 299 298 298 297 297 297 297 296 296 296 296 297 297 296 296 297 298 298 299 299 298 299 299 299 299 298 297 296 295 295 296 296 295 295 295 295 296 296
307 306 305 305 305 305 304 304 304 303 303 302 301 300 300 301 300 299 299 299 299 299 299 299 299 300 300 300 300 300 300 300 300 300 300 300 300 300 299 299 299 299 299 299 299 299 299 299 299 298 298 298 297 296 296 296 296 296 296 296 297 298 299 299 299 299 299 299 299 300 300 300 300 300 299 298 297 295 294 294 294 295 295 294 295 295
307 307 306 306 305 305 304 304 303 303 303 302 302 301 301 301 301 301 300 300 299 299 298 298 299 299 299 299 299 299 299 300 300 300 300 300 300 300 299 299 298 298 298 299 299 299 299 299 299 299 299 299 298 298 297 296 296 296 296 297 298 300 300 301 300 299 299 298 299 299 299 299 299 299 300 300 299 298 297 295 294 294 294 295 295 295
Wind_Speed
11 8 8 9 9 12 13 13 15 11 5 7 7 4 8 8 5 5 4 4 2 5 8 9 11 12 11 14 11 9 10 12 14 13 15 16 14 14 12 12 12 14 15 16 17 17 16 17 16 16 16 15 16 18 17 15 13 12 12 13 14 16 16 16 16 17 19 18 17 16 18 18 15 14 14 14 15 15 14 15 15 15 16 16 14 11
10 9 10 12 13 12 11 13 14 8 3 6 8 6 8 8 8 6 5 4 4 4 8 9 11 13 12 12 12 10 10 11 16 16 17 18 17 13 9 10 11 12 12 13 15 16 16 17 17 16 15 14 15 16 16 15 13 12 12 13 17 20 19 15 14 16 17 16 16 17 18 17 15 14 14 15 16 15 13 13 16 17 16 15 13 11
8 9 12 13 13 11 8 8 10 6 6 8 7 8 8 7 10 6 6 5 6 4 7 10 10 11 12 12 14 13 11 13 18 19 19 20 18 15 14 14 15 14 14 12 14 16 17 16 17 16 15 15 14 14 14 12 11 11 10 13 18 20 18 15 13 14 14 14 16 18 18 16 15 14 15 15 15 15 15 14 15 16 15 15 13 13
7 9 14 15 11 8 6 5 7 7 7 8 8 8 8 9 10 6 5 7 7 5 7 10 9 8 10 10 13 15 13 14 18 20 21 21 18 20 20 18 18 17 16 14 16 17 17 17 16 16 16 17 15 13 13 10 9 10 9 12 18 18 17 15 13 14 15 14 17 18 17 16 15 14 15 15 11 12 15 14 15 15 15 14 12 12
10 6 9 13 9 8 9 8 9 7 7 9 10 10 9 11 11 5 4 4 4 8 9 10 8 7 10 12 13 14 14 15 15 18 20 21 20 19 20 20 19 18 17 16 17 18 18 17 17 15 15 17 15 13 12 11 10 11 11 11 13 15 16 14 12 14 16 16 18 18 16 16 16 15 16 16 11 10 13 15 16 16 15 12 10 10
12 3 4 7 8 9 11 9 11 9 7 9 11 13 13 13 11 6 7 6 6 9 10 12 9 7 11 16 15 13 14 14 14 15 17 19 20 19 18 22 20 18 15 15 16 18 20 19 17 15 16 16 15 14 13 11 11 11 13 12 12 14 15 13 12 14 16 17 18 17 15 16 16 15 15 14 12 11 13 15 14 13 13 11 10 9
9 6 7 8 8 10 13 10 12 11 8 8 9 12 13 11 10 10 12 10 7 8 5 9 9 6 9 12 12 12 13 13 13 14 16 18 19 20 18 20 22 18 16 16 17 19 22 21 18 16 16 16 15 14 11 10 12 12 14 14 14 16 14 13 14 15 16 16 16 16 15 15 15 13 12 12 11 10 11 12 12 11 11 10 8 8
8 8 7 10 10 10 11 9 11 12 9 8 4 5 8 9 11 11 12 10 8 9 4 6 9 9 9 7 7 10 12 12 14 14 15 17 18 19 20 18 23 21 19 18 19 20 20 19 17 16 16 15 15 14 11 12 15 15 16 15 16 17 14 13 15 15 15 15 16 15 13 14 14 12 12 13 13 12 11 10 10 9 9 8 7 8
10 11 8 10 11 9 9 10 11 11 11 7 2 2 6 8 10 10 10 9 9 10 7 9 11 8 8 8 7 10 12 12 13 12 11 12 14 15 19 16 19 18 15 15 18 20 18 16 16 16 15 14 14 13 13 16 17 16 16 16 17 18 15 14 16 17 17 16 18 17 15 15 15 14 14 14 13 12 11 10 9 8 8 8 8 8
9 11 11 11 10 8 9 9 9 10 10 7 3 5 7 8 9 9 9 9 9 10 10 11 11 8 8 8 8 9 10 9 7 6 5 6 9 11 14 12 15 17 14 14 19 21 17 15 14 14 14 14 13 12 14 16 16 17 17 17 18 18 17 16 19 20 20 19 19 19 18 18 16 15 15 15 14 12 11 11 10 9 9 9 8 8
6 7 7 8 9 9 9 9 9 10 10 6 3 6 8 8 9 8 7 8 9 9 10 14 14 11 8 5 2 1 3 2 3 4 4 4 7 9 12 12 12 18 17 17 18 19 16 14 12 13 14 14 13 13 14 15 16 18 18 17 19 19 19 20 21 22 21 19 19 18 17 17 17 16 15 15 15 13 12 11 11 11 10 9 8 8
9 8 5 8 12 12 11 11 12 12 11 8 5 7 8 7 7 7 7 8 8 9 10 14 16 14 10 3 2 4 5 5 3 3 3 3 6 8 10 11 11 16 18 18 17 16 15 13 12 13 14 15 14 14 14 15 17 19 19 19 19 19 20 22 22 21 19 17 17 17 17 17 16 15 14 15 14 13 13 13 13 12 10 10 9 8
11 9 8 10 14 14 11 9 9 9 9 10 8 8 8 7 7 7 7 7 8 9 10 11 12 11 7 2 4 4 5 4 2 1 2 4 6 6 7 8 10 14 17 18 17 16 15 14 13 13 14 15 15 16 16 16 16 18 18 19 19 19 20 22 22 20 18 17 18 19 18 16 15 15 14 14 14 14 14 13 13 12 10 9 9 8
9 10 12 11 11 14 13 9 8 8 9 11 9 8 9 7 7 7 7 8 8 8 11 9 6 7 5 3 5 5 5 3 2 2 1 3 4 5 7 8 9 11 15 16 16 14 13 14 14 14 15 15 14 15 15 14 15 15 17 19 19 19 20 21 22 21 19 19 20 20 17 16 16 16 15 15 15 14 13 12 12 11 11 10 10 10
10 9 12 12 10 14 15 13 10 9 9 11 10 9 9 7 7 6 6 7 7 7 9 9 6 7 6 3 4 5 5 3 2 3 2 1 3 6 8 10 11 12 13 14 13 12 12 15 17 17 17 15 14 15 14 13 14 13 15 18 18 19 20 20 22 24 23 22 22 20 18 17 16 16 16 15 14 13 12 12 12 11 11 11 11 11
12 8 10 14 13 14 16 16 14 11 9 10 10 10 9 8 7 6 5 5 5 5 6 8 6 2 3 6 5 4 4 3 3 4 5 4 5 7 8 11 12 12 12 11 11 11 13 15 18 18 16 16 15 16 15 13 14 13 14 16 18 19 19 19 21 24 25 24 23 21 18 18 17 17 16 15 14 14 13 13 13 11 11 12 12 12
10 8 8 14 15 15 15 15 15 12 7 6 9 10 9 8 8 7 7 5 5 6 6 6 5 3 6 6 6 6 5 5 4 4 6 7 8 7 8 9 9 8 7 8 10 12 13 14 16 16 16 17 16 15 15 15 14 13 13 15 18 18 19 19 21 22 24 25 25 24 22 20 20 19 18 16 16 16 16 14 13 13 14 14 14 12
7 6 8 13 14 14 14 16 16 15 11 5 6 8 7 9 9 6 6 6 6 8 7 8 10 6 5 3 4 6 5 5 5 4 5 6 7 7 7 7 8 8 7 8 10 12 13 13 13 15 16 17 16 14 15 15 14 13 14 16 18 19 18 19 21 21 22 23 24 24 24 23 21 20 18 17 16 16 17 15 13 13 13 14 13 13
6 6 7 11 12 12 13 13 13 15 17 12 6 4 5 8 8 6 6 6 7 8 6 9 12 5 3 3 4 5 4 5 5 5 4 4 6 7 7 6 7 10 10 9 10 13 15 14 13 15 15 15 15 15 14 14 14 13 15 16 17 18 18 18 21 21 19 20 21 20 22 22 20 18 16 16 16 16 16 15 12 12 12 13 13 14
5 6 6 9 11 11 11 9 9 11 16 15 10 7 6 6 6 6 6 6 7 8 7 9 9 2 4 3 4 4 4 5 6 7 5 5 6 8 10 8 5 6 7 6 8 10 13 13 13 14 14 14 14 15 15 15 14 13 14 14 15 18 17 17 19 20 17 18 19 19 20 21 20 17 16 16 17 16 16 14 11 11 12 13 13 13
5 6 5 7 10 10 8 8 10 10 11 12 10 9 8 7 6 5 4 5 8 6 5 7 5 1 3 2 3 5 4 4 6 7 5 6 8 10 11 11 8 7 7 6 3 5 6 7 9 10 12 14 15 14 14 15 15 13 11 12 14 16 15 14 16 18 16 16 18 18 19 20 20 18 16 16 16 16 15 14 12 11 11 12 12 13
5 6 7 6 7 9 9 11 14 14 11 11 10 10 10 8 7 7 6 6 7 6 6 7 3 2 1 2 2 3 4 4 4 7 7 8 10 11 13 14 13 12 13 14 10 5 3 2 2 4 7 11 12 8 8 12 13 10 8 9 13 13 13 13 13 15 17 15 17 19 19 20 20 18 17 16 16 15 15 14 13 11 10 11 11 13
6 5 8 9 7 8 9 10 12 11 10 10 10 10 10 9 8 8 6 6 7 6 8 8 4 4 1 3 5 5 7 8 8 7 8 9 10 11 13 14 14 12 13 15 16 13 11 10 7 2 1 3 5 4 7 10 12 9 7 8 11 10 11 12 11 12 16 15 15 18 20 19 19 17 17 16 16 15 14 13 12 11 10 10 10 12
7 5 8 9 7 7 7 7 7 7 8 10 9 8 9 9 8 7 5 4 5 3 5 7 4 4 3 3 6 6 6 9 10 9 9 9 9 11 14 15 13 13 13 12 11 10 9 11 12 8 5 4 2 5 8 11 10 8 7 8 10 10 11 15 15 12 14 16 17 17 18 17 17 17 16 16 17 16 15 14 12 12 11 10 10 12
5 6 8 8 7 8 7 7 9 9 9 8 8 10 11 10 9 8 4 3 4 5 7 7 2 4 5 4 6 6 6 7 8 9 9 9 9 12 14 13 12 11 10 9 8 5 5 9 10 9 8 7 6 6 6 9 6 3 5 7 10 13 13 16 18 14 11 15 17 16 16 15 14 16 16 15 16 16 16 16 14 13 12 11 11 12
5 5 8 8 8 9 6 5 5 4 7 10 10 11 9 9 11 9 5 3 5 9 11 8 0 4 5 7 8 7 6 6 7 8 9 9 10 12 12 10 10 8 6 8 8 4 1 2 3 6 8 7 8 8 3 3 3 2 4 6 9 13 14 15 17 15 10 12 16 16 16 17 15 16 16 14 15 15 15 15 14 13 13 12 11 11
5 5 7 8 7 6 3 3 6 7 6 9 11 11 8 7 10 10 7 6 4 5 7 2 6 8 9 9 8 7 6 7 7 7 9 9 9 10 11 9 9 9 7 8 7 4 3 3 2 3 6 8 10 10 7 3 2 1 2 6 8 10 13 14 15 16 11 12 15 16 16 17 18 18 17 16 15 15 15 14 14 13 12 12 11 11
5 6 10 9 7 6 3 2 6 7 5 7 7 9 9 7 7 10 10 8 3 3 3 4 7 7 8 9 8 7 6 6 7 9 10 10 10 11 11 10 10 10 9 8 7 6 6 6 5 6 7 8 10 10 10 8 4 3 2 5 9 10 12 13 10 11 13 14 15 17 16 16 18 19 18 17 16 16 15 14 14 13 12 11 11 10
2 5 8 9 7 5 3 1 3 5 2 1 3 5 6 6 8 11 11 6 2 2 1 5 7 4 6 9 8 7 7 6 7 9 10 12 12 12 12 12 12 11 10 9 8 8 9 9 9 9 9 10 10 9 10 10 8 7 5 5 7 9 12 12 9 8 12 15 14 16 18 17 17 19 19 18 17 17 17 15 14 13 12 12 11 10
2 3 5 7 9 5 3 1 1 5 5 2 2 1 1 3 4 4 3 4 3 0 4 10 12 8 7 8 8 8 9 9 9 10 11 13 13 13 13 13 13 12 11 10 9 8 9 10 11 11 11 10 9 8 8 9 10 9 8 8 8 6 7 10 10 9 11 15 15 16 19 20 19 20 21 20 18 18 19 19 17 15 13 12 11 10
2 2 5 6 8 6 4 3 2 3 7 3 3 5 4 1 1 4 5 5 3 3 8 12 12 9 6 7 9 9 9 11 11 11 12 12 13 14 13 12 12 11 11 10 8 9 10 11 13 14 13 11 9 9 9 10 10 9 8 8 8 8 7 6 8 9 10 13 14 15 18 20 21 21 21 21 20 19 20 21 21 20 18 16 14 13
0 3 4 4 7 6 6 7 6 3 7 6 3 6 7 4 3 4 5 6 5 3 7 7 5 5 5 7 10 10 10 11 11 11 12 11 12 13 13 13 12 11 11 10 8 9 10 11 13 14 14 13 12 12 12 12 11 10 10 9 8 8 9 7 7 9 9 9 11 13 15 17 19 20 20 21 22 22 22 22 20 20 20 19 17 16
2 3 3 2 4 5 4 5 6 5 6 6 2 5 7 5 3 3 4 6 7 2 4 3 3 7 9 9 9 9 10 11 11 11 11 11 11 12 12 12 12 12 12 11 9 10 10 11 12 13 14 16 15 15 14 13 13 14 13 11 9 8 8 8 9 10 11 10 8 9 12 14 18 20 20 20 21 21 22 22 20 20 19 17 16 16
4 4 3 1 2 4 3 3 4 6 6 2 2 4 5 5 4 2 5 7 8 6 5 6 8 10 11 9 9 10 11 12 13 13 12 10 11 11 12 11 11 11 11 11 10 11 12 13 13 13 14 17 18 18 17 16 16 17 15 12 10 10 11 11 10 10 12 13 11 9 9 13 16 19 20 20 18 18 20 21 22 22 20 16 15 15
5 4 3 2 2 1 3 4 5 5 3 2 4 3 4 4 4 6 7 8 8 7 9 10 10 10 11 11 13 14 15 16 16 16 14 12 11 11 11 11 11 12 12 11 12 14 15 16 16 16 16 16 17 18 18 18 19 17 15 13 12 12 12 13 13 12 13 15 15 13 11 11 11 12 15 16 16 19 20 20 20 21 21 18 16 15
5 4 2 2 2 1 3 5 4 2 2 3 4 5 4 3 3 4 5 7 9 7 8 11 10 11 13 14 15 17 18 20 20 19 16 14 13 12 12 12 12 13 13 13 15 18 19 19 18 18 18 17 16 16 17 18 19 17 16 15 14 14 14 13 14 13 13 15 15 14 15 14 11 10 11 12 13 16 17 15 16 20 22 21 21 21
4 4 1 1 3 4 3 2 3 3 4 3 3 5 4 3 4 4 2 5 7 5 6 10 10 11 13 14 15 17 17 18 17 16 15 14 14 14 14 14 15 16 17 19 21 23 22 21 20 19 19 18 17 17 16 17 18 18 19 18 16 16 15 15 14 14 14 14 12 12 14 14 14 12 10 10 11 12 12 12 13 17 19 20 20 21
6 5 3 2 3 4 3 3 4 5 3 4 5 5 3 1 3 5 2 4 5 5 7 9 10 11 13 14 14 14 11 10 9 9 11 12 13 14 15 18 20 21 22 23 23 23 23 23 22 21 21 21 20 20 18 16 16 16 18 19 19 18 17 17 18 18 17 16 15 13 13 13 14 14 11 9 11 10 9 9 10 12 14 17 18 18
7 6 4 3 3 3 3 4 4 3 3 5 6 5 5 3 2 3 2 3 4 5 7 9 10 11 12 12 9 6 4 5 5 6 9 9 11 14 17 20 21 21 22 22 21 21 21 21 21 21 22 22 22 21 19 17 16 16 18 20 21 21 21 20 20 20 19 18 17 16 15 14 13 12 10 9 11 11 9 9 9 9 9 11 14 16
6 6 5 5 5 4 5 3 2 3 4 6 8 7 6 4 2 3 2 2 4 5 9 10 12 12 10 9 7 4 2 6 7 7 8 8 10 14 17 20 20 19 20 20 19 19 18 17 18 19 20 21 21 20 19 18 17 17 19 20 20 21 21 20 20 20 20 20 19 18 18 16 15 14 13 11 11 12 12 11 10 10 10 8 8 10
3 3 4 4 3 4 6 2 4 4 3 8 10 7 6 5 3 1 1 2 5 9 11 11 11 10 8 10 11 9 10 12 12 11 11 12 14 16 17 18 18 18 18 18 18 17 16 15 15 16 17 17 17 17 17 17 17 17 18 18 18 19 19 18 16 16 17 18 18 17 17 17 16 16 15 14 12 11 12 11 10 9 9 8 7 6
1 1 2 3 2 3 3 2 5 5 5 13 13 7 7 5 1 2 3 2 8 12 13 12 12 12 13 16 20 19 19 19 19 17 17 17 17 17 17 16 16 15 16 17 17 17 16 15 14 13 13 13 12 13 13 13 14 15 15 16 16 16 15 14 14 14 14 14 14 15 15 14 15 15 16 16 15 13 12 12 12 11 10 8 8 7
3 2 1 2 2 1 1 2 3 4 7 17 13 5 7 6 1 3 3 7 12 12 13 13 13 16 21 23 23 23 24 24 22 21 21 21 20 18 16 14 13 13 13 14 14 15 15 15 14 13 12 11 10 10 10 9 10 10 11 12 13 12 11 10 10 10 10 10 11 12 12 12 11 12 12 13 14 13 13 12 12 13 11 8 8 9
6 4 1 3 4 2 2 3 3 2 7 14 11 5 6 8 5 3 4 12 13 12 14 16 15 18 23 25 23 22 23 24 22 21 20 19 20 19 16 13 12 12 12 12 12 13 14 13 13 13 11 10 9 8 8 8 8 8 8 8 9 9 9 8 8 7 7 7 7 7 7 7 7 7 7 8 8 9 9 9 10 12 11 8 7 7
6 6 7 7 5 5 6 5 4 5 7 11 12 9 8 10 10 11 12 13 13 13 15 18 18 20 22 25 24 21 19 20 21 21 20 18 17 17 16 13 12 12 12 11 11 12 12 11 11 11 11 10 10 9 7 7 7 6 6 7 7 7 7 7 7 7 7 6 6 5 5 4 4 4 4 4 5 5 6 6 8 9 10 9 7 6
6 7 8 7 6 9 11 10 8 9 11 12 13 12 11 13 17 19 18 16 15 16 18 19 22 21 19 21 22 20 17 17 17 17 17 16 15 14 13 11 10 10 11 11 11 11 10 9 10 10 10 10 10 10 9 9 7 6 6 6 6 6 6 6 6 7 8 8 7 6 6 5 5 4 4 4 3 3 4 5 6 7 7 6 5 5
7 8 8 6 5 5 7 10 10 10 11 12 13 14 15 16 19 22 23 22 20 20 21 21 21 20 18 18 19 19 18 16 15 15 13 12 11 10 9 8 8 7 8 8 9 9 9 8 8 9 9 8 8 9 9 8 7 7 6 6 5 5 5 5 6 7 8 8 8 8 7 8 7 6 6 6 6 5 4 3 3 4 5 6 5 5
8 11 10 10 10 8 8 11 15 16 16 14 13 13 14 16 19 22 24 25 24 22 21 20 19 18 17 16 16 17 17 15 14 14 12 10 9 8 7 7 6 6 7 8 7 7 7 7 7 7 7 7 7 7 7 6 6 6 6 6 5 5 5 6 7 8 8 8 9 9 9 9 8 7 6 5 6 6 5 5 4 3 2 3 5 5
10 10 8 10 11 10 10 12 14 16 17 16 15 15 15 16 19 21 24 26 26 23 22 21 19 17 16 15 15 15 14 13 12 11 10 9 8 7 6 6 5 6 7 7 7 7 8 8 8 7 7 7 6 5 4 4 3 4 5 5 5 5 6 7 8 9 10 10 10 10 10 10 9 8 8 7 7 7 7 7 7 7 6 5 4 3
10 8 7 8 8 6 7 9 11 11 12 14 15 17 18 19 22 23 24 24 24 22 22 22 21 19 17 16 14 13 13 12 10 9 9 8 7 6 6 5 5 5 6 6 6 7 8 8 8 8 8 7 7 5 4 4 4 4 4 4 5 7 8 8 8 8 8 9 9 9 9 9 9 8 7 7 8 9 10 10 9 8 7 6 5 4
10 8 8 8 8 9 12 15 16 15 15 16 17 18 18 19 21 22 22 21 20 19 19 19 19 17 16 15 13 11 11 10 8 8 7 7 7 6 5 5 5 5 5 5 6 6 7 7 8 8 7 8 7 6 6 5 5 5 5 6 7 7 7 6 7 7 7 8 10 10 9 8 8 8 7 6 6 7 7 8 8 7 7 6 5 5
Wind_Direction
196 209 209 216 219 211 215 222 239 262 316 307 280 242 253 259 244 228 184 162 203 256 249 242 250 251 243 249 238 186 184 221 226 213 215 216 209 212 198 184 206 212 207 199 182 174 177 180 177 175 178 180 184 182 174 178 189 191 196 198 195 200 205 207 213 212 209 211 210 214 221 221 218 220 220 213 208 206 200 196 193 193 201 205 202 196
198 222 221 217 227 224 219 224 241 273 304 263 270 263 249 250 251 226 170 188 205 234 257 248 246 250 245 249 248 210 188 217 228 220 220 217 209 210 197 186 212 232 222 197 180 176 175 176 175 171 167 165 173 178 176 177 185 202 215 207 201 208 209 211 217 215 213 212 212 215 216 216 218 220 218 208 202 195 187 191 195 194 196 199 195 194
204 229 231 224 227 230 235 231 226 236 248 248 255 257 252 245 250 229 154 200 227 227 254 253 250 250 241 239 248 237 207 218 227 221 226 225 204 194 209 204 197 217 228 208 196 190 179 176 175 173 171 170 173 178 177 178 185 204 223 214 210 216 213 209 212 211 211 212 216 215 214 218 219 216 210 204 201 192 181 180 184 185 191 195 191 193
211 222 226 226 221 215 221 225 215 216 233 244 243 244 247 244 249 237 188 208 226 238 260 267 265 257 250 238 242 242 218 214 225 221 226 230 210 196 206 205 191 204 224 216 204 201 189 180 177 174 178 184 184 179 178 186 195 197 207 209 212 217 212 209 210 204 203 208 214 213 214 219 215 211 207 201 200 191 182 177 173 175 185 187 186 191
239 230 215 214 194 191 208 205 212 225 226 227 236 247 251 250 251 241 221 220 223 236 245 262 270 254 246 239 236 237 220 213 223 224 225 229 228 212 192 188 196 202 210 214 208 208 206 189 179 176 181 191 187 178 183 191 196 201 202 200 206 209 202 204 206 200 199 201 207 210 211 211 206 205 207 205 200 181 176 178 173 175 180 177 177 185
245 218 154 198 179 195 218 212 210 223 237 225 221 234 248 263 269 259 260 264 251 247 229 223 245 247 233 232 227 225 218 211 217 227 228 226 231 229 194 174 189 201 198 216 217 211 214 201 187 182 182 191 189 184 190 184 182 201 206 196 194 191 187 197 203 200 200 196 199 205 204 203 201 202 206 209 207 183 173 174 168 169 174 174 177 179
237 174 161 211 206 212 225 222 213 211 237 244 220 223 233 253 267 258 258 260 251 268 246 207 235 264 246 234 219 220 221 204 208 226 230 229 226 232 220 175 171 189 190 205 217 210 210 205 193 187 188 193 192 189 189 175 175 198 208 201 196 189 185 201 204 198 197 191 194 199 198 201 201 201 205 206 202 186 176 173 167 167 168 170 174 170
224 192 189 217 217 222 226 221 211 205 227 245 222 220 225 235 250 247 249 254 252 265 260 199 234 264 267 251 210 220 231 213 213 219 219 230 227 227 234 195 169 180 182 187 205 207 203 201 192 189 193 191 191 195 195 180 176 191 205 204 204 198 186 197 200 191 193 191 190 189 187 199 203 199 200 201 196 188 183 177 170 167 163 164 166 162
201 211 208 210 215 220 220 219 209 204 227 241 187 216 243 248 252 248 244 245 248 256 249 222 228 248 261 257 222 212 226 225 219 210 203 228 235 231 240 217 169 170 182 182 200 205 197 194 189 187 191 187 192 200 191 181 176 184 196 197 203 197 176 187 199 191 195 195 186 181 179 188 195 192 192 199 201 194 185 175 167 162 159 161 163 162
187 212 213 205 216 222 216 221 207 196 223 249 237 218 239 254 251 249 248 245 242 245 252 243 232 242 256 259 245 217 218 227 211 188 187 229 253 253 251 228 161 156 182 189 195 198 192 193 187 185 193 190 190 188 173 175 178 179 183 184 192 186 171 190 204 195 195 193 183 182 180 180 185 189 190 195 197 191 178 167 162 160 159 160 162 164
173 175 210 215 223 231 223 223 215 203 215 248 264 229 229 236 238 242 245 249 249 238 244 250 244 247 252 260 293 206 168 154 146 173 195 220 251 253 250 235 173 161 180 183 186 189 187 190 182 181 191 184 178 175 171 179 180 177 178 180 185 181 175 189 199 195 191 186 179 178 178 179 183 187 189 189 187 181 172 165 164 162 159 158 159 163
202 168 201 223 224 233 232 226 220 209 214 228 235 235 234 224 221 231 229 232 249 244 241 247 243 238 240 241 61 76 83 86 122 200 211 227 244 237 234 226 179 165 174 173 174 178 177 180 179 183 187 182 181 182 184 187 183 180 182 182 186 186 183 185 190 191 185 178 176 175 179 185 184 184 187 184 180 174 168 166 167 161 158 160 162 165
219 206 209 206 211 223 228 222 211 201 213 224 223 228 235 224 214 226 226 219 233 244 249 255 246 233 228 139 118 113 77 77 80 302 247 241 242 217 208 208 182 170 169 169 172 171 172 181 184 188 188 186 192 193 192 190 184 183 181 180 183 184 182 181 184 188 183 176 174 175 182 186 183 184 185 180 177 173 168 167 166 159 155 158 159 157
215 214 208 200 198 209 219 219 203 196 207 216 216 219 225 222 218 223 230 230 230 237 244 250 248 235 225 119 111 98 66 58 63 47 268 248 233 192 187 191 187 182 174 175 179 175 182 191 188 191 193 189 191 194 194 189 183 183 179 176 179 180 179 176 177 182 184 180 176 177 180 181 185 186 180 178 175 168 163 163 164 162 159 158 156 152
220 212 201 202 189 187 207 224 219 207 205 212 218 225 228 229 231 233 236 238 241 244 234 221 225 249 239 144 91 76 67 50 65 94 109 181 186 178 180 174 173 185 188 188 190 188 196 200 194 193 191 184 188 196 198 191 186 187 182 176 176 180 179 174 173 176 180 181 177 178 179 180 187 183 174 173 169 161 162 165 164 163 163 162 158 156
233 230 196 202 202 188 199 220 231 229 214 205 212 226 233 231 231 245 264 269 274 275 241 212 223 259 132 126 120 110 101 87 93 114 126 147 163 169 175 171 172 184 194 198 197 193 196 193 187 186 185 186 192 198 201 198 191 190 186 178 177 182 180 174 172 172 175 178 178 179 180 180 183 176 167 166 164 163 164 163 161 157 159 159 155 159
231 237 192 194 206 203 201 210 224 237 235 201 207 221 228 229 232 242 250 251 261 269 259 234 226 157 135 148 151 146 130 120 128 121 128 144 151 163 171 170 174 176 182 193 187 182 184 180 178 181 184 188 191 194 198 198 194 193 192 184 180 182 180 176 173 171 173 177 178 179 181 181 178 171 166 166 167 169 162 158 160 163 171 170 161 164
231 245 199 191 203 206 207 213 215 225 238 233 218 222 218 223 233 247 249 230 226 243 247 242 237 205 170 179 157 152 137 121 135 130 119 127 137 152 159 157 159 149 156 189 187 181 180 173 178 186 186 186 190 195 196 193 193 197 199 191 184 183 180 177 176 175 175 176 176 176 175 176 173 166 166 166 167 169 163 157 160 166 174 171 166 173
232 251 207 198 210 200 201 218 215 212 223 232 244 245 235 231 221 214 232 234 231 239 241 240 241 227 99 114 154 170 148 121 130 133 120 122 137 139 129 132 144 142 155 182 184 183 182 177 181 188 188 190 193 197 196 190 192 201 206 199 188 185 183 179 179 178 176 175 173 172 171 170 166 161 162 165 165 165 161 156 159 163 164 165 170 179
218 250 215 203 216 199 187 212 218 203 208 222 240 240 237 250 239 217 225 234 236 238 238 242 239 208 63 99 147 153 147 142 140 135 132 136 130 112 103 109 126 139 148 163 171 175 174 176 182 186 193 195 193 196 192 186 192 204 212 205 191 188 189 185 183 179 178 181 176 171 171 167 160 156 158 162 163 160 156 154 158 164 168 169 175 178
202 235 227 207 211 198 183 203 216 208 196 205 226 228 222 231 237 238 246 253 255 251 241 247 239 155 49 48 130 135 133 146 142 133 127 116 100 74 69 71 63 58 52 60 133 175 167 166 170 176 191 193 191 195 188 186 196 201 204 203 193 191 190 188 188 181 178 185 181 172 170 166 158 153 153 156 157 155 154 155 158 165 168 167 170 172
205 224 229 219 210 206 205 206 212 217 212 205 210 218 223 226 229 232 227 230 245 254 249 245 214 113 27 17 70 111 102 90 110 123 115 96 84 68 57 52 48 43 38 43 53 56 52 55 129 172 190 195 195 189 163 176 199 202 198 201 198 196 189 185 193 191 184 185 183 176 170 166 160 154 151 152 152 154 158 159 159 162 161 158 164 167
213 232 231 218 217 232 225 208 210 222 229 227 224 222 224 226 235 242 237 227 233 254 268 255 189 116 51 41 62 67 72 64 62 88 96 79 74 74 64 54 48 42 39 40 36 33 36 28 7 339 232 206 202 161 141 173 198 203 203 205 201 197 192 195 207 204 191 187 186 180 170 163 159 155 152 152 152 155 161 162 158 157 155 155 164 166
207 234 237 222 223 242 227 194 203 224 232 234 231 227 229 230 235 240 247 262 262 277 299 278 228 134 112 77 79 80 81 72 59 64 79 76 75 76 66 58 55 53 54 51 34 18 7 1 357 352 354 352 29 113 156 186 194 196 203 204 198 195 201 211 217 214 200 191 187 180 170 161 155 153 154 156 158 159 162 162 160 160 158 158 167 168
205 218 224 225 222 221 208 192 199 209 218 232 232 229 234 239 237 231 228 289 284 244 242 260 264 110 131 141 115 106 103 86 66 57 64 67 68 68 62 59 65 67 61 51 46 29 325 330 350 1 1 2 33 79 154 185 179 195 216 198 187 193 206 212 210 211 207 193 186 176 169 164 152 149 153 158 163 164 163 161 161 162 161 162 169 169
230 235 224 229 226 218 211 213 226 225 218 221 222 224 233 242 246 243 225 234 248 239 246 257 109 107 137 149 138 130 121 103 85 71 68 65 63 66 63 60 69 79 66 45 50 64 32 354 18 18 17 29 49 62 95 179 176 229 235 201 186 195 204 206 204 205 192 170 172 172 171 172 167 160 157 159 165 165 162 162 162 162 162 164 168 169
238 256 244 245 253 256 256 273 303 316 272 238 219 207 214 242 264 271 250 233 240 252 265 248 140 161 163 151 145 137 128 119 106 89 77 71 65 66 68 69 76 79 73 65 69 80 85 97 91 29 28 44 54 62 66 81 155 186 216 205 203 202 202 203 205 205 187 161 167 176 175 176 178 176 166 163 169 166 161 164 165 162 164 167 168 171
244 245 240 245 264 274 268 287 306 317 312 287 249 210 207 223 259 268 251 246 274 271 270 90 119 163 161 146 145 133 123 122 111 98 85 77 71 71 74 77 79 76 74 76 78 77 70 66 52 33 34 47 54 65 75 80 105 109 95 203 217 220 213 207 206 200 187 173 172 179 181 179 181 183 177 173 174 168 162 164 166 163 164 167 169 171
283 255 243 236 239 254 252 253 325 323 316 272 235 214 200 204 235 250 249 262 311 276 225 121 132 156 138 131 132 117 104 99 99 96 90 81 76 76 77 76 75 75 76 78 79 78 70 60 50 39 37 46 54 68 86 90 98 108 112 155 196 215 215 205 189 169 173 175 173 175 178 179 182 183 183 184 182 174 167 163 162 162 163 167 169 168
37 299 283 246 226 224 246 222 360 303 271 179 122 337 203 188 237 267 291 317 321 62 118 132 133 116 99 109 108 98 96 96 94 88 84 82 81 80 76 74 77 76 74 76 80 89 86 72 62 54 50 54 63 72 85 96 101 109 120 126 143 169 193 202 193 170 165 173 177 175 171 174 181 184 185 189 190 184 176 167 160 157 158 161 163 160
55 326 334 284 238 210 210 220 182 270 268 225 95 28 4 359 9 16 18 1 350 102 115 121 117 98 87 103 107 105 103 100 94 84 78 77 80 83 77 73 75 73 71 73 82 100 107 97 85 74 67 68 78 82 81 87 92 94 101 106 115 124 126 161 190 181 171 172 175 177 172 173 182 187 188 192 194 192 187 179 170 164 161 160 160 157
330 291 326 303 262 227 204 217 208 225 271 248 147 39 2 343 15 26 25 22 29 105 140 141 128 121 130 120 113 111 105 96 89 81 78 73 72 78 78 72 70 70 69 69 81 100 107 105 98 88 79 76 79 82 82 83 84 82 83 86 90 108 118 125 142 150 152 156 166 175 175 177 186 191 195 197 195 192 190 186 181 177 172 169 170 169
174 263 287 293 267 241 202 209 208 218 261 253 166 39 7 346 344 17 45 30 20 36 174 172 115 120 132 129 119 111 97 86 79 76 78 77 73 73 73 70 65 65 65 62 72 91 95 97 98 92 90 88 80 76 77 82 87 85 82 84 91 108 123 124 122 126 123 119 135 160 169 181 191 196 199 199 194 191 190 187 184 182 177 171 171 174
168 220 246 252 256 230 156 131 182 208 227 230 57 20 15 11 351 28 59 33 23 42 76 91 103 122 131 128 120 108 93 83 78 74 73 77 80 76 72 69 65 63 65 66 75 85 86 91 97 96 95 96 89 81 78 80 86 86 82 84 95 108 115 115 115 119 114 104 99 114 148 177 193 199 200 196 191 191 192 193 188 180 173 168 167 168
178 201 215 218 261 261 133 158 195 209 216 76 60 28 22 30 43 75 70 38 30 58 84 95 106 117 116 110 109 106 99 91 81 72 68 70 76 79 75 71 69 70 71 72 81 89 91 94 99 98 95 96 95 90 86 82 82 82 82 86 97 108 112 111 112 115 116 112 108 110 128 156 181 194 194 191 192 193 197 203 196 180 172 174 177 177
194 185 195 211 221 202 188 201 203 163 91 75 55 33 23 25 52 86 91 52 29 44 95 105 103 103 107 109 110 109 104 93 78 67 65 68 72 79 80 76 76 79 79 82 91 96 98 99 100 98 96 94 93 93 93 91 88 85 84 84 89 98 102 104 108 112 116 121 124 126 129 136 146 159 170 182 193 197 200 206 197 184 182 185 186 189
167 147 114 153 195 210 203 156 121 136 134 104 49 33 27 13 360 352 65 73 36 30 98 115 116 116 118 117 117 121 113 94 75 62 60 66 72 76 80 82 86 89 90 94 98 100 100 100 98 98 98 97 95 95 97 99 100 98 95 91 88 89 92 96 100 101 105 110 115 123 130 135 133 129 135 154 169 182 195 196 186 186 191 193 193 197
152 136 119 141 217 237 216 151 152 174 146 75 57 57 44 360 333 325 322 96 59 51 106 125 126 123 128 129 131 139 127 92 70 60 59 67 77 81 87 93 94 95 96 97 98 99 101 103 102 101 101 99 99 99 99 101 104 105 103 100 97 93 92 93 94 93 94 95 96 101 111 120 120 112 107 120 138 159 179 180 177 185 196 200 198 199
162 146 144 195 230 254 245 212 191 169 103 59 37 26 18 8 335 302 253 121 71 72 112 127 128 129 134 131 131 158 160 112 94 75 64 68 80 88 96 99 98 98 99 99 98 98 99 101 103 104 103 101 100 100 99 100 102 104 105 103 101 97 94 94 94 93 92 92 92 95 98 101 104 103 100 112 135 148 151 157 168 167 172 192 196 195
185 174 185 233 241 258 263 237 108 80 72 39 6 356 7 5 313 271 222 108 78 101 120 124 129 133 129 108 80 32 54 110 115 100 80 79 86 94 101 103 102 101 99 97 97 97 98 100 102 100 99 99 98 98 100 101 102 103 103 103 101 99 96 94 95 96 97 96 96 97 99 99 98 98 97 102 122 136 137 145 160 152 140 153 171 180
166 184 203 234 248 267 258 205 96 89 47 6 348 348 358 329 272 262 6 87 94 109 118 114 111 112 103 95 92 76 70 89 103 103 93 85 84 88 92 94 95 97 97 95 92 89 89 91 92 90 92 96 96 95 97 102 105 104 103 103 101 99 98 97 97 97 97 100 102 102 103 104 104 104 105 102 106 117 124 132 144 146 147 155 155 165
82 256 222 233 290 307 257 166 112 110 37 355 340 346 358 332 212 57 10 134 120 114 117 109 99 100 97 98 104 105 102 103 106 106 101 95 87 82 79 79 80 80 83 86 86 83 78 76 77 78 80 84 85 83 83 92 99 100 101 102 98 95 98 102 102 100 98 98 101 101 100 102 104 107 109 108 109 112 113 115 117 114 116 125 123 118
6 311 124 69 355 341 142 111 113 118 20 355 344 351 15 13 19 344 8 111 116 117 117 102 96 109 110 103 103 107 110 110 109 106 104 101 96 90 82 75 72 70 67 65 68 73 73 71 72 70 67 65 66 66 65 69 77 86 96 100 98 97 99 101 104 107 105 103 102 101 99 97 99 101 104 107 113 118 117 116 114 106 96 89 94 102
360 328 77 51 349 335 91 66 51 47 7 3 11 40 31 21 14 350 92 112 116 118 110 98 97 111 113 109 108 107 107 108 108 106 105 102 101 100 92 80 72 70 65 57 55 60 60 59 61 63 61 59 57 57 59 60 60 66 77 88 95 98 101 103 104 106 106 106 107 106 106 106 105 104 104 106 112 118 121 125 124 118 111 102 95 97
40 56 85 75 46 52 65 59 46 38 28 28 39 47 37 42 64 83 97 109 116 111 105 106 110 111 109 109 109 106 106 108 107 106 104 101 99 98 93 85 76 68 63 59 56 55 52 47 48 51 53 53 50 49 54 58 58 60 66 71 76 80 86 92 95 93 90 91 97 101 106 116 122 125 128 131 137 142 143 148 148 142 137 132 123 114
97 104 99 92 103 92 66 52 52 53 49 49 51 52 53 67 85 91 85 84 94 100 105 113 115 112 110 111 109 108 110 111 109 108 106 103 99 95 88 80 69 56 53 54 51 49 46 43 42 42 46 50 49 45 45 47 50 57 62 64 66 70 75 81 87 88 82 78 80 87 93 96 100 108 117 119 123 140 154 168 176 173 163 146 128 119
85 96 92 84 108 107 54 41 49 55 56 59 62 63 64 76 92 95 88 82 87 95 104 112 112 111 112 113 112 116 118 117 116 116 114 110 105 98 90 83 70 57 53 52 48 44 43 43 42 40 43 50 52 49 47 46 48 51 54 56 61 70 78 86 92 93 88 82 78 75 79 87 88 88 101 106 99 96 108 127 159 178 177 161 137 111
84 84 82 74 75 84 87 81 74 67 64 64 67 68 70 78 88 92 93 95 97 98 102 106 109 111 113 113 115 118 120 120 121 121 120 119 114 108 101 91 78 68 62 57 54 55 53 53 52 50 51 55 55 54 53 50 50 52 51 49 52 64 80 89 93 90 84 84 83 77 73 76 78 79 90 106 107 104 103 102 106 117 140 160 160 149
97 93 94 93 91 98 107 100 88 75 64 60 65 75 81 86 89 91 96 102 104 103 102 102 102 103 106 108 111 113 114 115 117 117 118 118 115 111 103 91 79 70 62 56 55 56 55 52 50 50 54 59 61 66 69 68 69 69 60 51 50 61 73 78 80 79 75 70 71 72 69 70 71 72 74 81 90 96 97 98 101 101 99 106 120 134
95 105 112 105 98 97 92 84 83 81 71 68 76 84 88 90 92 94 97 100 102 104 107 106 102 99 100 101 102 104 106 109 110 111 110 107 104 101 92 81 75 69 60 57 56 54 49 43 39 38 40 41 42 45 55 68 79 82 84 85 78 71 70 68 66 70 77 78 76 73 70 71 73 71 69 69 71 78 84 88 88 87 86 89 92 93
85 100 104 95 91 96 96 91 88 90 91 92 94 96 93 90 90 92 93 95 96 101 107 108 103 98 96 95 92 91 95 99 102 104 104 99 94 89 79 69 61 53 49 50 50 48 45 41 34 29 29 33 35 34 38 49 59 60 69 81 80 73 72 75 76 77 83 92 93 86 77 75 78 77 78 75 59 47 49 53 59 65 63 54 50 50